Weather History for Tampa, FL

Change the Weather History Date:

Tuesday, June 18, 2013

  Actual Average Record
Temperature  
Mean Temperature 86 °F 82 °F  
Max Temperature 91 °F 90 °F 96 °F (1998)
Min Temperature 80 °F 75 °F 65 °F (1933)
Degree Days  
Heating Degree Days 0 0  
Month to date heating degree days 0 0  
Since 1 June heating degree days 0 0  
Since 1 July heating degree days 400 538  
Cooling Degree Days 21 17  
Month to date cooling degree days 316 303  
Year to date cooling degree days 1291 1180  
Since 1 June cooling degree days 316 303  
Growing Degree Days 36 (Base 50)    
Moisture  
Dew Point 75 °F    
Average Humidity 72    
Maximum Humidity 85    
Minimum Humidity 59    
Precipitation  
Precipitation 0.05 in 0.25 in 3.21 in (1972)
Month to date precipitation 8.58 3.44  
Year to date precipitation 17.70 15.64  
Sea Level Pressure  
Sea Level Pressure 30.04 in    
Wind  
Wind Speed 5 mph (SW)    
Max Wind Speed 13 mph    
Max Gust Speed 17 mph    
Visibility 10 miles    
Events Rain    
T = Trace of Precipitation, MM = Missing Value Source: NWS Daily Summary

Daily Weather History Graph

Daily Weather History Graph

Search for Another Location

Airport:

Trip Planner

Search our weather history database for the weather conditions in past years. The results will help you decide how hot, cold, wet, or windy it might be!

Date:

Astronomy

Jun. 18, 2013 Rise Set
Actual Time 6:33 AM EDT 8:28 PM EDT
Civil Twilight 6:07 AM EDT 8:55 PM EDT
Nautical Twilight 5:34 AM EDT 9:27 PM EDT
Astronomical Twilight 5:00 AM EDT 10:02 PM EDT
Moon 3:30 PM EDT (6/18) 2:19 AM EDT (6/18)
Length of Visible Light 14h 48m
Length of Day
13h 54m
Waxing Gibbous, 70% of the Moon is Illuminated
Jun 18
Waxing Gibbous
Jun 23
Full
Jun 30
Last Quarter
Jul 8
New
Jul 15
First Quarter

Hourly Weather History & Observations

Time (EDT) Temp. Heat Index Dew Point Humidity Pressure Visibility Wind Dir Wind Speed Gust Speed Precip Events Conditions
12:42 AM 82.4 °F 89.5 °F 75.2 °F 79% 30.07 in 10.0 mi NNW 4.6 mph - N/A   Scattered Clouds
12:53 AM 82.0 °F 88.6 °F 75.0 °F 79% 30.07 in 10.0 mi NNW 3.5 mph - N/A   Scattered Clouds
1:53 AM 82.0 °F 87.9 °F 73.9 °F 76% 30.05 in 10.0 mi Calm Calm - N/A   Scattered Clouds
2:53 AM 82.0 °F 87.9 °F 73.9 °F 76% 30.04 in 10.0 mi Calm Calm - N/A   Scattered Clouds
3:53 AM 81.0 °F 86.7 °F 75.0 °F 82% 30.03 in 10.0 mi Calm Calm - N/A   Scattered Clouds
4:53 AM 81.0 °F 87.3 °F 75.9 °F 85% 30.02 in 10.0 mi Calm Calm - N/A   Scattered Clouds
5:53 AM 81.0 °F 86.7 °F 75.0 °F 82% 30.03 in 10.0 mi Calm Calm - N/A   Mostly Cloudy
6:53 AM 80.1 °F 84.5 °F 73.9 °F 81% 30.04 in 5.0 mi South 4.6 mph - 0.01 in Rain Light Rain
7:53 AM 82.0 °F 89.4 °F 75.9 °F 82% 30.05 in 10.0 mi South 4.6 mph - 0.00 in   Partly Cloudy
8:53 AM 84.0 °F 92.6 °F 75.9 °F 76% 30.07 in 10.0 mi SSE 3.5 mph - N/A   Scattered Clouds
9:13 AM 84.2 °F 92.3 °F 75.2 °F 74% 30.07 in 10.0 mi South 6.9 mph - N/A   Scattered Clouds
9:26 AM 84.2 °F 92.3 °F 75.2 °F 74% 30.07 in 10.0 mi South 5.8 mph - N/A   Mostly Cloudy
9:53 AM 84.0 °F 91.9 °F 75.0 °F 74% 30.07 in 10.0 mi SSW 4.6 mph - N/A   Scattered Clouds
10:53 AM 86.0 °F 95.1 °F 75.0 °F 70% 30.07 in 10.0 mi South 8.1 mph - N/A   Scattered Clouds
11:53 AM 87.1 °F 95.4 °F 73.9 °F 65% 30.07 in 10.0 mi South 6.9 mph - N/A   Scattered Clouds
12:53 PM 88.0 °F 96.5 °F 73.9 °F 63% 30.07 in 10.0 mi SSW 8.1 mph - N/A   Mostly Cloudy
1:53 PM 84.9 °F 93.3 °F 75.0 °F 72% 30.05 in 9.0 mi South 6.9 mph - 0.01 in   Mostly Cloudy
2:53 PM 90.0 °F 100.2 °F 75.0 °F 61% 30.03 in 10.0 mi SW 4.6 mph - 0.03 in   Scattered Clouds
3:53 PM 90.0 °F 99.0 °F 73.9 °F 59% 30.02 in 10.0 mi West 11.5 mph - N/A   Scattered Clouds
4:53 PM 90.0 °F 99.0 °F 73.9 °F 59% 30.00 in 10.0 mi West 9.2 mph - N/A   Scattered Clouds
5:53 PM 89.1 °F 97.0 °F 73.0 °F 59% 29.99 in 10.0 mi WSW 9.2 mph - N/A   Scattered Clouds
6:53 PM 88.0 °F 95.6 °F 73.0 °F 61% 29.99 in 10.0 mi West 9.2 mph - N/A   Scattered Clouds
7:53 PM 87.1 °F 94.5 °F 73.0 °F 63% 29.99 in 10.0 mi WNW 8.1 mph - N/A   Scattered Clouds
8:53 PM 84.9 °F 92.1 °F 73.9 °F 69% 30.01 in 10.0 mi West 6.9 mph - N/A   Scattered Clouds
9:53 PM 84.0 °F 91.9 °F 75.0 °F 74% 30.02 in 10.0 mi West 4.6 mph - N/A   Scattered Clouds
10:53 PM 82.9 °F 90.2 °F 75.0 °F 77% 30.03 in 10.0 mi WSW 5.8 mph - N/A   Scattered Clouds
11:53 PM 82.9 °F 89.4 °F 73.9 °F 74% 30.03 in 10.0 mi WSW 4.6 mph - N/A   Partly Cloudy